Weather History for Williston, ND

Change the Weather History Date:

Friday, March 14, 2014

  Actual Average Record
Temperature  
Mean Temperature 37 °F 28 °F  
Max Temperature 47 °F 39 °F 65 °F (1935)
Min Temperature 27 °F 18 °F -35 °F (1897)
Degree Days  
Heating Degree Days 28 37  
Month to date heating degree days 585 558  
Since 1 July heating degree days 7534 7326  
Cooling Degree Days 0 0  
Month to date cooling degree days 0 0  
Year to date cooling degree days 0 0  
Moisture  
Dew Point 24 °F    
Average Humidity 61    
Maximum Humidity 85    
Minimum Humidity 37    
Precipitation  
Precipitation 0.00 in 0.03 in 0.38 in (1921)
Month to date precipitation 0.12 0.30  
Year to date precipitation 0.56 1.28  
Sea Level Pressure  
Sea Level Pressure 29.88 in    
Wind  
Wind Speed 10 mph (NW)    
Max Wind Speed 20 mph    
Max Gust Speed 26 mph    
Visibility 10 miles    
Events      
T = Trace of Precipitation, MM = Missing Value Source: NWS Daily Summary

Daily Weather History Graph

Daily Weather History Graph

Search for Another Location

Airport:

Trip Planner

Search our weather history database for the weather conditions in past years. The results will help you decide how hot, cold, wet, or windy it might be!

Date:

Astronomy

Mar. 14, 2014 Rise Set
Actual Time 8:09 AM CDT 7:58 PM CDT
Civil Twilight 7:38 AM CDT 8:29 PM CDT
Nautical Twilight 7:02 AM CDT 9:05 PM CDT
Astronomical Twilight 6:25 AM CDT 9:43 PM CDT
Moon 6:18 PM CDT (3/14) 6:57 AM CDT (3/14)
Length of Visible Light 12h 50m
Length of Day
11h 48m
Waxing Gibbous, 96% of the Moon is Illuminated
Mar 14
Waxing Gibbous
Mar 16
Full
Mar 23
Last Quarter
Mar 30
New
Apr 7
First Quarter

Hourly Weather History & Observations

Time (CDT) Temp. Windchill Dew Point Humidity Pressure Visibility Wind Dir Wind Speed Gust Speed Precip Events Conditions
12:52 AM 33.1 °F 23.4 °F 26.1 °F 75% 29.82 in 10.0 mi WNW 13.8 mph - N/A   Scattered Clouds
1:52 AM 32.0 °F 20.8 °F 25.0 °F 75% 29.83 in 10.0 mi WNW 17.3 mph - N/A   Clear
2:52 AM 30.9 °F 20.7 °F 24.1 °F 76% 29.84 in 10.0 mi WNW 13.8 mph - N/A   Clear
3:52 AM 30.9 °F 19.4 °F 24.1 °F 76% 29.86 in 10.0 mi WNW 17.3 mph - N/A   Clear
4:52 AM 30.0 °F 18.7 °F 23.0 °F 75% 29.86 in 10.0 mi WNW 16.1 mph - N/A   Clear
5:52 AM 28.9 °F 17.3 °F 23.0 °F 78% 29.86 in 10.0 mi WNW 16.1 mph - N/A   Clear
6:52 AM 28.9 °F 17.7 °F 23.0 °F 78% 29.88 in 10.0 mi WNW 15.0 mph - N/A   Clear
7:52 AM 28.0 °F 18.6 °F 21.9 °F 78% 29.91 in 10.0 mi WNW 10.4 mph - N/A   Clear
8:52 AM 30.0 °F 22.4 °F 23.0 °F 75% 29.91 in 10.0 mi WNW 8.1 mph - N/A   Clear
9:52 AM 34.0 °F 27.2 °F 23.0 °F 64% 29.91 in 10.0 mi NNW 8.1 mph - N/A   Clear
10:52 AM 36.0 °F 30.3 °F 24.1 °F 62% 29.93 in 10.0 mi WNW 6.9 mph - N/A   Clear
11:52 AM 37.9 °F 33.5 °F 25.0 °F 60% 29.92 in 10.0 mi NW 5.8 mph - N/A   Clear
12:52 PM 39.9 °F 34.5 °F 25.0 °F 55% 29.91 in 10.0 mi NNW 8.1 mph - N/A   Clear
1:52 PM 42.1 °F 37.7 °F 24.1 °F 49% 29.89 in 10.0 mi Variable 6.9 mph - N/A   Clear
2:52 PM 45.0 °F 41.2 °F 21.9 °F 40% 29.87 in 10.0 mi West 6.9 mph - N/A   Clear
3:52 PM 46.0 °F 41.9 °F 21.0 °F 37% 29.86 in 10.0 mi WNW 8.1 mph - N/A   Clear
4:52 PM 45.0 °F 43.5 °F 24.1 °F 44% 29.87 in 10.0 mi NNE 3.5 mph - N/A   Clear
5:52 PM 44.1 °F 42.5 °F 23.0 °F 43% 29.87 in 10.0 mi East 3.5 mph - N/A   Clear
6:52 PM 44.1 °F 42.5 °F 19.9 °F 38% 29.86 in 10.0 mi ENE 3.5 mph - N/A   Clear
7:52 PM 39.0 °F 31.8 °F 26.1 °F 60% 29.88 in 10.0 mi East 11.5 mph - N/A   Clear
8:52 PM 37.0 °F 30.4 °F 27.0 °F 67% 29.89 in 10.0 mi East 9.2 mph - N/A   Mostly Cloudy
9:52 PM 35.1 °F 26.9 °F 27.0 °F 72% 29.88 in 10.0 mi East 11.5 mph - N/A   Clear
10:52 PM 32.0 °F 24.2 °F 27.0 °F 82% 29.91 in 10.0 mi ESE 9.2 mph - N/A   Overcast
11:52 PM 30.9 °F 26.2 °F 26.1 °F 82% 29.93 in 10.0 mi East 4.6 mph - N/A   Overcast